Regional Weather Roundup
Issued by NWS

Home | Current Version | Previous Version | Text Only | Print | Product List | Glossary Off
Versions: 1 2 3 4 5 6 7 8 9 10 11 12 13 14 15 16 17 18 19 20 21 22 23 24 25 26 27 28 29 30 31 32 33 34 35 36 37 38 39 40 41 42 43 44 45 46 47 48 49 50

000
ASUS43 KBIS 221810
RWRND

NORTH DAKOTA REGIONAL WEATHER ROUNDUP
NATIONAL WEATHER SERVICE BISMARCK ND
1200 PM CST MON JAN 22 2018

NOTE: "FAIR" INDICATES FEW OR NO CLOUDS BELOW 12,000 FEET WITH NO
SIGNIFICANT WEATHER AND/OR OBSTRUCTIONS TO VISIBILITY.


NDZ001>003-009>011-017-221900-
NORTHWEST NORTH DAKOTA

CITY           SKY/WX    TMP DP  RH WIND       PRES   REMARKS
WILLISTON      SUNNY     17  14  88 SW5       30.02S WCI  10
6HR MIN TEMP:   2; 6HR MAX TEMP:  17;

MINOT          FOG       17  15  92 S7        30.05F VSB 1/2 WCI   8
MINOT AFB      FOG       17  14  90 SE6       30.05S VSB 1/4 WCI   8
$$

NDZ018>021-031>035-040>046-221900-
SOUTHWEST NORTH DAKOTA

CITY           SKY/WX    TMP DP  RH WIND       PRES   REMARKS
BISMARCK       FOG       22  20  92 N3        30.06F VSB 3/4
6HR MIN TEMP:  18; 6HR MAX TEMP:  22;

DICKINSON      SUNNY     27  18  69 NW8       29.97F WCI  19
GARRISON         N/A     12  10  92 SE5       30.04S WCI   4
6HR MIN TEMP:   4; 6HR MAX TEMP:  12;

HETTINGER ARPT SUNNY     33  21  61 NW15      29.99F
$$

NDZ004>008-012>016-024-026-027-054-221900-
NORTHEAST NORTH DAKOTA

CITY           SKY/WX    TMP DP  RH WIND       PRES   REMARKS
GRAND FORKS    CLOUDY    26  22  84 N12       30.06F WCI  16
GRND FRKS AFB  CLOUDY    25  20  83 NE12      30.06F WCI  14
DEVILS LAKE    CLOUDY    22  20  92 E8        30.07F WCI  12
$$

NDZ022-023-025-028>030-036>039-047>053-221900-
SOUTHEAST NORTH DAKOTA

CITY           SKY/WX    TMP DP  RH WIND       PRES   REMARKS
FARGO          CLOUDY    27  24  89 N16       29.98F WCI  15
6HR MIN TEMP:  25; 6HR MAX TEMP:  27;

JAMESTOWN      CLOUDY    22  21  96 N17       30.01F WCI   8
$$





USA.gov is the U.S. government's official web portal to all federal, state and local government web resources and services.